Weather History for Eastsound, WA

Change the Weather History Date:

Wednesday, July 24, 2013

  Actual Average (KBLI) Record (KBLI)
Temperature  
Mean Temperature 64 °F 63 °F  
Max Temperature 73 °F 72 °F 86 °F (2004)
Min Temperature 55 °F 54 °F 43 °F (1957)
Degree Days  
Heating Degree Days 1 2  
Month to date heating degree days 71  
Since 1 June heating degree days 272  
Cooling Degree Days 0 0  
Month to date cooling degree days 0  
Year to date cooling degree days 4  
Since 1 June cooling degree days 4  
Growing Degree Days 14 (Base 50)    
Moisture  
Dew Point 54 °F    
Average Humidity 75    
Maximum Humidity 94    
Minimum Humidity 53    
Precipitation  
Precipitation 0.00 in 0.04 in 0.31 in (2014)
Month to date precipitation 0.97  
Year to date precipitation 18.91  
Sea Level Pressure  
Sea Level Pressure 30.01 in    
Wind  
Wind Speed 4 mph (South)    
Max Wind Speed 7 mph    
Max Gust Speed -    
Visibility 9 miles    
Events Rain    
T = Trace of Precipitation, MM = Missing Value Source: NWS Daily Summary

Daily Weather History Graph

Daily Weather History Graph

Search for Another Location

Airport:

Trip Planner

Search our weather history database for the weather conditions in past years. The results will help you decide how hot, cold, wet, or windy it might be!

Date:

Astronomy

Jul. 24, 2013 Rise Set
Actual Time 5:35 AM PDT 8:59 PM PDT
Civil Twilight 4:57 AM PDT 9:38 PM PDT
Nautical Twilight 4:05 AM PDT 10:29 PM PDT
Astronomical Twilight 2:57 AM PDT 11:36 PM PDT
Moon 9:48 PM PDT (7/24) 8:19 AM PDT (7/24)
Length of Visible Light 16h 41m
Length of Day
15h 24m
Waning Gibbous, 94% of the Moon is Illuminated
Jul 24
Waning Gibbous
Jul 29
Last Quarter
Aug 6
New
Aug 14
First Quarter
Aug 20
Full

Hourly Weather History & Observations

Time (PDT) Temp. Dew Point Humidity Pressure Visibility Wind Dir Wind Speed Gust Speed Precip Events Conditions
12:15 AM 59.0 °F 53.6 °F 82% 29.99 in 10.0 mi South 4.6 mph - N/A   Clear
12:35 AM 59.0 °F 51.8 °F 77% 29.99 in 10.0 mi Calm Calm - N/A   Clear
12:55 AM 59.0 °F 51.8 °F 77% 29.99 in 10.0 mi South 3.5 mph - N/A   Clear
1:15 AM 59.0 °F 51.8 °F 77% 29.99 in 10.0 mi South 4.6 mph - N/A   Clear
1:35 AM 59.0 °F 53.6 °F 82% 29.99 in 10.0 mi South 6.9 mph - N/A   Clear
1:55 AM 57.2 °F 51.8 °F 82% 29.99 in 10.0 mi SSE 3.5 mph - N/A   Clear
2:15 AM 57.2 °F 51.8 °F 82% 29.99 in 10.0 mi South 3.5 mph - N/A   Clear
2:35 AM 57.2 °F 51.8 °F 82% 30.00 in 10.0 mi SSW 6.9 mph - N/A   Clear
2:55 AM 57.2 °F 51.8 °F 82% 30.00 in 10.0 mi Calm Calm - N/A   Clear
3:15 AM 57.2 °F 51.8 °F 82% 30.00 in 10.0 mi Calm Calm - N/A   Clear
3:35 AM 57.2 °F 51.8 °F 82% 30.00 in 10.0 mi South 4.6 mph - N/A   Clear
3:55 AM 55.4 °F 51.8 °F 88% 30.01 in 10.0 mi SSE 3.5 mph - N/A   Clear
4:15 AM 55.4 °F 51.8 °F 88% 30.01 in 10.0 mi South 4.6 mph - N/A   Clear
4:35 AM 55.4 °F 53.6 °F 94% 30.01 in 10.0 mi South 3.5 mph - N/A   Clear
4:55 AM 55.4 °F 53.6 °F 94% 30.01 in 9.0 mi South 3.5 mph - N/A   Clear
5:15 AM 55.4 °F 51.8 °F 88% 30.02 in 9.0 mi Calm Calm - N/A   Clear
5:35 AM 55.4 °F 51.8 °F 88% 30.02 in 9.0 mi Calm Calm - N/A   Clear
5:55 AM 55.4 °F 51.8 °F 88% 30.02 in 7.0 mi SSE 4.6 mph - N/A   Clear
6:15 AM 55.4 °F 51.8 °F 88% 30.03 in 8.0 mi SSE 3.5 mph - N/A   Clear
6:35 AM 55.4 °F 51.8 °F 88% 30.03 in 7.0 mi SSE 3.5 mph - N/A   Clear
6:55 AM 55.4 °F 53.6 °F 94% 30.03 in 8.0 mi South 5.8 mph - N/A   Clear
7:15 AM 57.2 °F 53.6 °F 88% 30.04 in 8.0 mi South 3.5 mph - N/A   Clear
7:35 AM 57.2 °F 53.6 °F 88% 30.04 in 8.0 mi Calm Calm - N/A   Clear
7:55 AM 59.0 °F 53.6 °F 82% 30.04 in 9.0 mi South 4.6 mph - N/A   Clear
8:15 AM 59.0 °F 53.6 °F 82% 30.04 in 8.0 mi South 6.9 mph - N/A   Clear
8:35 AM 59.0 °F 53.6 °F 82% 30.04 in 8.0 mi South 6.9 mph - N/A   Clear
8:55 AM 59.0 °F 53.6 °F 82% 30.04 in 9.0 mi South 4.6 mph - N/A   Clear
9:15 AM 60.8 °F 53.6 °F 77% 30.04 in 10.0 mi South 6.9 mph - N/A   Clear
9:35 AM 60.8 °F 53.6 °F 77% 30.04 in 8.0 mi South 6.9 mph - N/A   Clear
9:55 AM 62.6 °F 53.6 °F 72% 30.04 in 10.0 mi South 6.9 mph - N/A   Clear
10:15 AM 62.6 °F 53.6 °F 72% 30.04 in 8.0 mi South 5.8 mph - N/A   Clear
10:35 AM 66.2 °F 55.4 °F 68% 30.04 in 9.0 mi SSW 3.5 mph - N/A   Clear
10:55 AM 64.4 °F 55.4 °F 73% 30.04 in 9.0 mi Calm Calm - N/A   Clear
11:15 AM 64.4 °F 55.4 °F 73% 30.05 in 10.0 mi Calm Calm - N/A   Clear
11:35 AM 66.2 °F 55.4 °F 68% 30.04 in 9.0 mi Calm Calm - N/A   Clear
11:55 AM 68.0 °F 57.2 °F 68% 30.04 in 9.0 mi North 3.5 mph - N/A   Clear
12:15 PM 68.0 °F 59.0 °F 73% 30.04 in 9.0 mi North 4.6 mph - N/A   Clear
12:35 PM 66.2 °F 57.2 °F 73% 30.04 in 9.0 mi North 4.6 mph - N/A   Clear
12:55 PM 68.0 °F 59.0 °F 73% 30.04 in 9.0 mi North 4.6 mph - N/A   Clear
1:15 PM 68.0 °F 57.2 °F 68% 30.04 in 9.0 mi North 4.6 mph - N/A   Clear
1:35 PM 68.0 °F 57.2 °F 68% 30.03 in 9.0 mi North 3.5 mph - N/A   Clear
1:55 PM 68.0 °F 57.2 °F 68% 30.03 in 8.0 mi North 4.6 mph - N/A   Clear
2:15 PM 69.8 °F 59.0 °F 68% 30.03 in 9.0 mi North 4.6 mph - N/A   Clear
2:35 PM 71.6 °F 57.2 °F 60% 30.03 in 10.0 mi SSW 3.5 mph - N/A Rain Light Rain
2:55 PM 71.6 °F 57.2 °F 60% 30.02 in 9.0 mi North 4.6 mph - N/A   Clear
3:15 PM 71.6 °F 57.2 °F 60% 30.02 in 9.0 mi Calm Calm - N/A   Clear
3:35 PM 69.8 °F 59.0 °F 68% 30.02 in 9.0 mi North 4.6 mph - N/A   Clear
3:55 PM 71.6 °F 59.0 °F 64% 30.02 in 9.0 mi North 4.6 mph - N/A   Clear
4:15 PM 71.6 °F 59.0 °F 64% 30.01 in 9.0 mi Calm Calm - N/A   Clear
4:35 PM 73.4 °F 57.2 °F 57% 30.01 in 9.0 mi South 4.6 mph - N/A   Clear
4:55 PM 68.0 °F 59.0 °F 73% 30.00 in 9.0 mi Calm Calm - N/A   Clear
5:15 PM 71.6 °F 55.4 °F 57% 30.00 in 10.0 mi South 5.8 mph - N/A   Clear
5:35 PM 73.4 °F 55.4 °F 53% 30.00 in 9.0 mi South 5.8 mph - N/A   Clear
5:55 PM 73.4 °F 55.4 °F 53% 29.99 in 10.0 mi South 6.9 mph - N/A   Clear
6:15 PM 71.6 °F 55.4 °F 57% 29.98 in 9.0 mi South 5.8 mph - N/A   Clear
6:35 PM 71.6 °F 55.4 °F 57% 29.98 in 10.0 mi South 3.5 mph - N/A   Clear
6:55 PM 69.8 °F 55.4 °F 60% 29.99 in 9.0 mi South 4.6 mph - N/A   Clear
7:15 PM 69.8 °F 55.4 °F 60% 29.98 in 9.0 mi South 6.9 mph - N/A   Clear
7:35 PM 68.0 °F 55.4 °F 64% 29.98 in 9.0 mi South 5.8 mph - N/A   Clear
7:55 PM 66.2 °F 53.6 °F 64% 29.99 in 10.0 mi SE 4.6 mph - N/A   Clear
8:15 PM 66.2 °F 53.6 °F 64% 29.99 in 9.0 mi SSE 4.6 mph - N/A   Clear
8:35 PM 64.4 °F 53.6 °F 68% 29.99 in 9.0 mi SSE 3.5 mph - N/A   Clear
8:55 PM 60.8 °F 53.6 °F 77% 29.99 in 8.0 mi South 3.5 mph - N/A   Clear
9:15 PM 59.0 °F 53.6 °F 82% 29.99 in 8.0 mi SSE 4.6 mph - N/A   Clear
9:35 PM 59.0 °F 51.8 °F 77% 29.99 in 10.0 mi SSE 5.8 mph - N/A   Clear
9:55 PM 59.0 °F 51.8 °F 77% 29.99 in 10.0 mi South 4.6 mph - N/A   Clear
10:15 PM 57.2 °F 53.6 °F 88% 29.99 in 10.0 mi South 6.9 mph - N/A   Clear
10:35 PM 57.2 °F 53.6 °F 88% 30.00 in 10.0 mi South 4.6 mph - N/A   Clear
10:55 PM 57.2 °F 51.8 °F 82% 30.00 in 10.0 mi South 5.8 mph - N/A   Clear
11:15 PM 57.2 °F 51.8 °F 82% 30.00 in 9.0 mi South 3.5 mph - N/A   Clear
11:35 PM 57.2 °F 53.6 °F 88% 30.00 in 10.0 mi SSE 3.5 mph - N/A   Clear
11:55 PM 57.2 °F 51.8 °F 82% 30.00 in 10.0 mi South 3.5 mph - N/A   Clear